• en France
  • Liste des pays
  • À 7 jours
  • Température de l'eau
  • Carte satellitaire
  • Carte météo
  • Widgets météo
  • user-avatar
    Se connecter

    Météo par heure à Syngryanovo

    Ce jour, 21 Septembre, Vendredi

    Heure Température Précipitation Vent Pression Humidité
    00:00 +8°C° 0 mm 3 m/s 748 mmHg 85%
    01:00 +8°C° 0 mm 3 m/s 748 mmHg 86%
    02:00 +7°C° 0 mm 3 m/s 749 mmHg 87%
    03:00 +7°C° 0 mm 3 m/s 749 mmHg 88%
    04:00 +7°C° 0 mm 3 m/s 749 mmHg 89%
    05:00 +7°C° 0 mm 3 m/s 750 mmHg 89%
    06:00 +7°C° 0 mm 3 m/s 750 mmHg 89%
    07:00 +7°C° 0 mm 3 m/s 750 mmHg 89%
    08:00 +7°C° 0 mm 4 m/s 751 mmHg 83%
    09:00 +8°C° 0 mm 4 m/s 751 mmHg 78%
    10:00 +10°C° 0 mm 5 m/s 751 mmHg 73%
    11:00 +12°C° 0 mm 5 m/s 752 mmHg 69%
    12:00 +13°C° 0 mm 5 m/s 752 mmHg 66%
    13:00 +14°C° 0 mm 5 m/s 752 mmHg 62%
    14:00 +14°C° 0 mm 5 m/s 752 mmHg 62%
    15:00 +14°C° 0 mm 5 m/s 753 mmHg 61%
    16:00 +14°C° 0 mm 5 m/s 753 mmHg 60%
    17:00 +13°C° 0 mm 4 m/s 753 mmHg 65%
    18:00 +12°C° 0 mm 3 m/s 754 mmHg 69%
    19:00 +10°C° 0 mm 3 m/s 754 mmHg 73%
    20:00 +10°C° 0 mm 2 m/s 754 mmHg 74%
    21:00 +9°C° 0 mm 2 m/s 755 mmHg 74%
    22:00 +8°C° 0 mm 2 m/s 755 mmHg 74%
    23:00 +8°C° 0 mm 2 m/s 755 mmHg 74%

    Demain, 22 Septembre, Samedi

    Heure Température Précipitation Vent Pression Humidité
    00:00 +8°C° 0 mm 2 m/s 755 mmHg 74%
    01:00 +8°C° 0 mm 2 m/s 756 mmHg 74%
    02:00 +8°C° 0 mm 2 m/s 756 mmHg 77%
    03:00 +8°C° 0 mm 2 m/s 756 mmHg 79%
    04:00 +8°C° 0 mm 2 m/s 756 mmHg 82%
    05:00 +8°C° 0 mm 2 m/s 756 mmHg 85%
    06:00 +8°C° 0 mm 2 m/s 757 mmHg 88%
    07:00 +9°C° 0 mm 2 m/s 757 mmHg 91%
    08:00 +10°C° 0 mm 2 m/s 757 mmHg 89%
    09:00 +12°C° 0 mm 3 m/s 757 mmHg 87%
    10:00 +13°C° 0 mm 3 m/s 757 mmHg 85%
    11:00 +16°C° 0 mm 3 m/s 757 mmHg 82%
    12:00 +17°C° 0 mm 3 m/s 757 mmHg 79%
    13:00 +18°C° 0 mm 3 m/s 757 mmHg 77%
    14:00 +19°C° 0 mm 3 m/s 757 mmHg 77%
    15:00 +19°C° 0 mm 3 m/s 756 mmHg 77%
    16:00 +19°C° 0 mm 3 m/s 756 mmHg 77%
    17:00 +18°C° 0.1 mm 3 m/s 756 mmHg 82%
    18:00 +17°C° 0.1 mm 3 m/s 756 mmHg 87%
    19:00 +16°C° 0.1 mm 2 m/s 756 mmHg 92%
    20:00 +16°C° 0.1 mm 2 m/s 756 mmHg 93%
    21:00 +15°C° 0.1 mm 2 m/s 756 mmHg 93%
    22:00 +15°C° 0.1 mm 2 m/s 757 mmHg 94%
    23:00 +15°C° 0 mm 2 m/s 757 mmHg 94%

    Après-demain, 23 Septembre, Dimanche

    Heure Température Précipitation Vent Pression Humidité
    00:00 +15°C° 0 mm 2 m/s 757 mmHg 94%
    01:00 +14°C° 0 mm 2 m/s 757 mmHg 95%
    02:00 +14°C° 0 mm 2 m/s 757 mmHg 95%
    03:00 +14°C° 0 mm 2 m/s 757 mmHg 95%
    04:00 +14°C° 0 mm 1 m/s 757 mmHg 95%
    05:00 +14°C° 0 mm 1 m/s 757 mmHg 95%
    06:00 +14°C° 0 mm 1 m/s 757 mmHg 95%
    07:00 +14°C° 0 mm 1 m/s 757 mmHg 95%
    08:00 +15°C° 0 mm 1 m/s 757 mmHg 90%
    09:00 +17°C° 0 mm 2 m/s 757 mmHg 85%
    10:00 +19°C° 0 mm 2 m/s 757 mmHg 80%
    11:00 +20°C° 0 mm 2 m/s 757 mmHg 75%
    12:00 +21°C° 0 mm 2 m/s 757 mmHg 71%
    13:00 +23°C° 0 mm 2 m/s 757 mmHg 67%
    14:00 +23°C° 0 mm 2 m/s 757 mmHg 66%
    15:00 +23°C° 0 mm 2 m/s 756 mmHg 66%
    16:00 +23°C° 0 mm 2 m/s 756 mmHg 65%
    17:00 +21°C° 0 mm 2 m/s 756 mmHg 70%
    18:00 +20°C° 0 mm 2 m/s 756 mmHg 75%
    19:00 +19°C° 0 mm 2 m/s 756 mmHg 80%
    20:00 +18°C° 0 mm 2 m/s 756 mmHg 82%
    21:00 +17°C° 0 mm 3 m/s 756 mmHg 84%
    22:00 +17°C° 0 mm 3 m/s 755 mmHg 87%
    23:00 +16°C° 0 mm 3 m/s 755 mmHg 88%

    24 Septembre, Lundi

    Heure Température Précipitation Vent Pression Humidité
    00:00 +16°C° 0 mm 3 m/s 755 mmHg 89%
    01:00 +14°C° 0 mm 3 m/s 755 mmHg 91%
    02:00 +14°C° 0 mm 3 m/s 755 mmHg 91%
    03:00 +14°C° 0 mm 3 m/s 754 mmHg 91%
    04:00 +14°C° 0 mm 3 m/s 754 mmHg 92%
    05:00 +14°C° 0 mm 3 m/s 754 mmHg 91%
    06:00 +13°C° 0 mm 3 m/s 754 mmHg 90%
    07:00 +13°C° 0 mm 3 m/s 754 mmHg 89%
    08:00 +15°C° 0 mm 4 m/s 754 mmHg 82%
    09:00 +17°C° 0 mm 5 m/s 754 mmHg 74%
    10:00 +19°C° 0 mm 5 m/s 753 mmHg 67%
    11:00 +20°C° 0 mm 6 m/s 753 mmHg 64%
    12:00 +21°C° 0 mm 6 m/s 753 mmHg 62%
    13:00 +22°C° 0 mm 6 m/s 753 mmHg 59%
    14:00 +22°C° 0 mm 6 m/s 753 mmHg 59%
    15:00 +22°C° 0 mm 5 m/s 753 mmHg 58%
    16:00 +22°C° 0 mm 5 m/s 752 mmHg 58%
    17:00 +20°C° 0 mm 5 m/s 752 mmHg 61%
    18:00 +19°C° 0 mm 4 m/s 752 mmHg 65%
    19:00 +17°C° 0 mm 4 m/s 752 mmHg 68%
    20:00 +17°C° 0 mm 4 m/s 752 mmHg 68%
    21:00 +15°C° 0 mm 4 m/s 752 mmHg 69%
    22:00 +16°C° 0 mm 3 m/s 753 mmHg 69%
    23:00 +14°C° 0 mm 3 m/s 753 mmHg 69%

    25 Septembre, Mardi

    Heure Température Précipitation Vent Pression Humidité
    00:00 +14°C° 0 mm 3 m/s 753 mmHg 69%
    01:00 +13°C° 0 mm 3 m/s 752 mmHg 69%
    02:00 +13°C° 0 mm 3 m/s 753 mmHg 69%
    03:00 +13°C° 0 mm 4 m/s 753 mmHg 69%
    04:00 +13°C° 0 mm 4 m/s 753 mmHg 68%
    05:00 +12°C° 0 mm 4 m/s 753 mmHg 69%
    06:00 +12°C° 0 mm 3 m/s 753 mmHg 70%
    07:00 +12°C° 0 mm 3 m/s 754 mmHg 71%
    08:00 +14°C° 0 mm 4 m/s 754 mmHg 66%
    09:00 +17°C° 0 mm 4 m/s 754 mmHg 61%
    10:00 +19°C° 0 mm 5 m/s 754 mmHg 57%
    11:00 +20°C° 0 mm 6 m/s 754 mmHg 53%
    12:00 +21°C° 0 mm 6 m/s 754 mmHg 49%
    13:00 +22°C° 0 mm 7 m/s 753 mmHg 46%
    14:00 +22°C° 0 mm 6 m/s 753 mmHg 48%
    15:00 +22°C° 0 mm 6 m/s 753 mmHg 49%
    16:00 +22°C° 0 mm 5 m/s 753 mmHg 51%
    17:00 +20°C° 0 mm 5 m/s 753 mmHg 55%
    18:00 +19°C° 0 mm 5 m/s 753 mmHg 59%
    19:00 +16°C° 0 mm 5 m/s 753 mmHg 63%
    20:00 +16°C° 0 mm 5 m/s 753 mmHg 63%
    21:00 +16°C° 0 mm 5 m/s 753 mmHg 63%
    22:00 +16°C° 0 mm 5 m/s 753 mmHg 64%
    23:00 +15°C° 0 mm 5 m/s 753 mmHg 65%

    26 Septembre, Mercredi

    Heure Température Précipitation Vent Pression Humidité
    00:00 +14°C° 0 mm 5 m/s 753 mmHg 67%
    01:00 +14°C° 0 mm 4 m/s 754 mmHg 69%
    02:00 +13°C° 0 mm 4 m/s 754 mmHg 70%
    03:00 +13°C° 0 mm 4 m/s 754 mmHg 71%
    04:00 +12°C° 0 mm 4 m/s 754 mmHg 72%
    05:00 +12°C° 0 mm 4 m/s 754 mmHg 71%
    06:00 +12°C° 0 mm 5 m/s 754 mmHg 70%
    07:00 +12°C° 0 mm 5 m/s 754 mmHg 69%
    08:00 +13°C° 0 mm 6 m/s 754 mmHg 64%
    09:00 +15°C° 0 mm 6 m/s 754 mmHg 59%
    10:00 +16°C° 0 mm 7 m/s 754 mmHg 54%
    11:00 +17°C° 0 mm 7 m/s 754 mmHg 53%
    12:00 +17°C° 0 mm 7 m/s 754 mmHg 52%
    13:00 +18°C° 0 mm 8 m/s 754 mmHg 51%
    14:00 +17°C° 0.2 mm 7 m/s 754 mmHg 56%
    15:00 +16°C° 0.2 mm 6 m/s 754 mmHg 61%
    16:00 +15°C° 0.2 mm 5 m/s 754 mmHg 65%
    17:00 +15°C° 0.2 mm 5 m/s 755 mmHg 67%
    18:00 +14°C° 0.2 mm 5 m/s 755 mmHg 68%
    19:00 +14°C° 0.2 mm 5 m/s 755 mmHg 69%
    20:00 +13°C° 0 mm 4 m/s 755 mmHg 70%
    21:00 +13°C° 0 mm 4 m/s 755 mmHg 70%
    22:00 +13°C° 0 mm 4 m/s 756 mmHg 70%
    23:00 +12°C° 0 mm 4 m/s 756 mmHg 72%
    Voir plus